Regional Weather Roundup
Issued by NWS

Home | Current Version | Previous Version | Graphics & Text | Print | Product List | Glossary On
Versions: 1 2 3 4 5 6 7 8 9 10 11 12 13 14 15 16 17 18 19 20 21 22 23 24 25 26 27 28 29 30 31 32 33 34 35 36 37 38 39 40 41 42 43 44 45 46 47 48 49 50
000
ASUS43 KFSD 201410
RWRSD

WEATHER ROUNDUP FOR SOUTH DAKOTA
NATIONAL WEATHER SERVICE SIOUX FALLS SD
900 AM CDT WED AUG 20 2014

NOTE: "FAIR" INDICATES FEW OR NO CLOUDS BELOW 12,000 FEET WITH NO
SIGNIFICANT WEATHER AND/OR OBSTRUCTIONS TO VISIBILITY.


SDZ001>005-009-010-012>017-201500-
NORTHWEST AND NORTH CENTRAL SOUTH DAKOTA

CITY           SKY/WX    TMP DP  RH WIND       PRES   REMARKS
BUFFALO          N/A     69  61  75 SE6       29.65F
FAITH            N/A     70  64  81 S16       29.71F
MOBRIDGE       CLOUDY    67  64  90 SE8       29.70R
$$

SDZ012>016-024>037-041>051-057-063-072>074-201500-
SOUTHWEST AND SOUTH CENTRAL SOUTH DAKOTA

CITY           SKY/WX    TMP DP  RH WIND       PRES   REMARKS
RAPID CTY ARPT CLOUDY    66  59  78 NW5       29.74S
PIERRE         MOSUNNY   72  65  78 SE10      29.70R
CUSTER         CLOUDY    67  47  48 W6        29.89F
ELLSWORTH AFB  LGT RAIN  67  57  69 W5        29.74S
PHILIP         PTSUNNY   73  65  75 SE7       29.70F
PINE RIDGE     CLOUDY    68  59  73 CALM      29.78S
WINNER         FAIR      73  67  81 SE10      29.75S
$$

SDZ004>011-016>023-039-040-201500-
NORTHEAST SOUTH DAKOTA

CITY           SKY/WX    TMP DP  RH WIND       PRES   REMARKS
ABERDEEN       MOSUNNY   70  64  81 SE7       29.76S
WATERTOWN      MOSUNNY   71  63  75 SE9       29.77F
SISSETON         N/A     67  66  97 S6        29.79S
$$

SDZ017-020-022-023-036>040-048>070-201500-
SOUTHEAST SOUTH DAKOTA

CITY           SKY/WX    TMP DP  RH WIND       PRES   REMARKS
SIOUX FALLS    CLOUDY    71  66  84 S12       29.80S
HURON          MOSUNNY   73  66  78 E9        29.75R
CHAMBERLAIN    MOSUNNY   72  66  82 SE18      29.74R
MITCHELL       PTSUNNY   70  66  87 S16G25    29.75R
YANKTON        CLOUDY    68  66  94 SE12      29.78F
$$

ABBREVIATIONS USED IN REMARKS
   TC - TEMPERATURE IN CELSIUS
  WCI - WIND CHILL INDEX
   HX - HEAT INDEX
  VSB - VISIBILITY




USA.gov is the U.S. government's official web portal to all federal, state and local government web resources and services.